Total_Precipitation_Accumulation
0.00 0.00 0.01 0.01 0.01 0.02 0.04 0.09 0.21 0.26 0.18 0.27 0.34 0.53 0.62 0.69 0.83 0.83 0.70 0.68 0.88 1.02 1.16 1.36 1.79 2.45 3.20 3.93 4.05 3.46 2.91 2.56 2.26 1.90 1.35 0.99 0.83 0.75 0.68 0.58 0.51 0.46 0.42 0.44
0.00 0.02 0.02 0.01 0.02 0.03 0.06 0.08 0.19 0.26 0.17 0.20 0.34 0.62 0.86 0.80 0.74 0.71 0.71 0.64 0.76 1.05 1.39 1.87 2.64 3.13 3.14 3.09 2.65 2.12 1.85 1.68 1.38 1.08 0.75 0.58 0.48 0.41 0.36 0.34 0.36 0.34 0.29 0.30
0.01 0.03 0.02 0.02 0.03 0.09 0.10 0.10 0.18 0.24 0.15 0.15 0.34 0.75 0.96 0.91 0.72 0.60 0.58 0.51 0.72 1.11 1.64 2.28 2.66 2.57 2.09 1.60 1.36 1.19 1.07 0.82 0.68 0.61 0.47 0.38 0.30 0.27 0.25 0.24 0.25 0.24 0.21 0.22
0.01 0.02 0.02 0.02 0.04 0.08 0.09 0.06 0.06 0.09 0.15 0.32 0.48 0.95 1.04 0.83 0.77 0.60 0.56 0.54 0.63 0.87 1.15 1.48 1.59 1.33 1.20 1.11 1.01 0.97 0.87 0.58 0.48 0.41 0.33 0.27 0.22 0.22 0.22 0.20 0.20 0.19 0.17 0.18
0.02 0.03 0.02 0.02 0.03 0.04 0.04 0.03 0.04 0.10 0.21 0.38 0.54 0.76 0.84 0.63 0.74 0.56 0.42 0.40 0.42 0.57 0.65 0.67 0.68 0.64 0.62 0.63 0.68 0.74 0.74 0.63 0.51 0.42 0.34 0.29 0.23 0.21 0.20 0.20 0.20 0.21 0.20 0.18
0.03 0.04 0.03 0.02 0.02 0.03 0.03 0.05 0.12 0.22 0.36 0.74 0.71 0.71 0.85 0.74 0.78 0.58 0.39 0.31 0.35 0.47 0.52 0.50 0.44 0.39 0.40 0.42 0.40 0.49 0.61 0.69 0.63 0.54 0.43 0.35 0.28 0.25 0.23 0.21 0.20 0.20 0.18 0.18
0.09 0.07 0.05 0.03 0.03 0.05 0.05 0.07 0.23 0.55 0.87 0.96 0.57 0.60 0.81 0.63 0.57 0.41 0.22 0.16 0.25 0.39 0.51 0.49 0.41 0.32 0.27 0.26 0.23 0.24 0.27 0.37 0.39 0.36 0.37 0.35 0.33 0.29 0.24 0.20 0.17 0.17 0.16 0.16
0.14 0.12 0.06 0.03 0.04 0.06 0.04 0.03 0.10 0.19 0.25 0.38 0.46 0.70 0.80 0.61 0.39 0.17 0.07 0.06 0.16 0.23 0.27 0.28 0.26 0.20 0.13 0.11 0.11 0.10 0.12 0.14 0.15 0.15 0.18 0.21 0.24 0.19 0.17 0.23 0.18 0.18 0.21 0.22
0.05 0.05 0.04 0.04 0.05 0.05 0.03 0.02 0.03 0.06 0.09 0.24 0.51 0.71 0.60 0.48 0.32 0.14 0.07 0.05 0.06 0.08 0.09 0.12 0.13 0.12 0.09 0.08 0.07 0.07 0.08 0.08 0.07 0.07 0.09 0.12 0.17 0.17 0.16 0.18 0.18 0.16 0.22 0.23
0.02 0.02 0.04 0.04 0.05 0.05 0.03 0.02 0.02 0.04 0.09 0.16 0.33 0.62 0.69 0.51 0.34 0.14 0.08 0.07 0.06 0.08 0.07 0.07 0.07 0.07 0.06 0.06 0.07 0.07 0.07 0.06 0.05 0.05 0.05 0.07 0.13 0.16 0.17 0.16 0.18 0.19 0.19 0.19
0.02 0.02 0.05 0.05 0.06 0.07 0.05 0.04 0.03 0.03 0.05 0.09 0.20 0.34 0.29 0.22 0.14 0.09 0.05 0.03 0.04 0.04 0.05 0.04 0.04 0.04 0.04 0.04 0.05 0.05 0.06 0.05 0.04 0.04 0.03 0.04 0.07 0.10 0.15 0.18 0.19 0.21 0.20 0.18
0.01 0.01 0.03 0.06 0.07 0.07 0.07 0.06 0.05 0.05 0.05 0.06 0.09 0.19 0.12 0.12 0.10 0.06 0.03 0.01 0.01 0.01 0.01 0.02 0.02 0.04 0.04 0.03 0.04 0.04 0.05 0.04 0.04 0.03 0.03 0.03 0.03 0.04 0.07 0.12 0.15 0.17 0.17 0.15
0.01 0.01 0.02 0.10 0.16 0.12 0.07 0.05 0.05 0.05 0.05 0.05 0.14 0.25 0.15 0.08 0.07 0.05 0.02 0.01 0.00 0.00 0.01 0.01 0.02 0.05 0.06 0.04 0.03 0.03 0.03 0.03 0.02 0.02 0.01 0.02 0.02 0.02 0.04 0.06 0.09 0.11 0.14 0.15
0.02 0.01 0.01 0.08 0.15 0.15 0.12 0.08 0.08 0.07 0.04 0.04 0.09 0.22 0.15 0.08 0.10 0.06 0.02 0.01 0.01 0.01 0.01 0.01 0.01 0.02 0.02 0.01 0.01 0.01 0.03 0.06 0.03 0.02 0.02 0.03 0.03 0.03 0.04 0.03 0.05 0.07 0.10 0.13
0.02 0.01 0.01 0.01 0.03 0.06 0.08 0.09 0.08 0.05 0.02 0.04 0.06 0.13 0.10 0.11 0.11 0.08 0.03 0.01 0.01 0.02 0.02 0.02 0.03 0.04 0.04 0.03 0.03 0.04 0.04 0.05 0.07 0.08 0.08 0.10 0.09 0.09 0.09 0.08 0.07 0.08 0.10 0.12
0.02 0.01 0.01 0.01 0.02 0.05 0.07 0.09 0.06 0.04 0.03 0.03 0.04 0.05 0.04 0.08 0.09 0.07 0.05 0.04 0.05 0.06 0.06 0.06 0.05 0.05 0.05 0.05 0.05 0.04 0.05 0.06 0.06 0.09 0.09 0.09 0.10 0.10 0.12 0.12 0.12 0.12 0.14 0.18
0.04 0.02 0.01 0.01 0.03 0.04 0.11 0.08 0.04 0.04 0.04 0.04 0.04 0.05 0.05 0.07 0.10 0.09 0.07 0.07 0.06 0.05 0.04 0.03 0.03 0.04 0.04 0.03 0.02 0.02 0.03 0.03 0.04 0.07 0.08 0.09 0.09 0.11 0.13 0.14 0.15 0.17 0.20 0.23
0.12 0.07 0.03 0.02 0.03 0.08 0.10 0.05 0.05 0.05 0.05 0.06 0.07 0.07 0.07 0.08 0.07 0.06 0.05 0.04 0.03 0.04 0.04 0.04 0.03 0.03 0.03 0.02 0.03 0.03 0.03 0.04 0.06 0.07 0.10 0.12 0.14 0.16 0.18 0.20 0.22 0.25 0.28 0.29
0.20 0.15 0.07 0.04 0.04 0.07 0.09 0.09 0.08 0.10 0.09 0.07 0.10 0.11 0.09 0.08 0.05 0.05 0.05 0.05 0.05 0.05 0.04 0.03 0.04 0.04 0.04 0.04 0.05 0.05 0.07 0.09 0.11 0.13 0.16 0.18 0.21 0.23 0.24 0.25 0.29 0.36 0.39 0.38
0.22 0.21 0.11 0.06 0.07 0.11 0.11 0.14 0.10 0.10 0.13 0.11 0.15 0.16 0.13 0.12 0.16 0.17 0.12 0.09 0.07 0.05 0.04 0.04 0.04 0.05 0.06 0.08 0.09 0.09 0.11 0.13 0.15 0.18 0.20 0.20 0.24 0.28 0.29 0.31 0.36 0.40 0.46 0.46
0.19 0.21 0.17 0.12 0.11 0.10 0.13 0.15 0.15 0.25 0.31 0.27 0.29 0.24 0.17 0.16 0.19 0.16 0.11 0.08 0.06 0.05 0.05 0.04 0.04 0.04 0.04 0.06 0.08 0.12 0.16 0.21 0.23 0.24 0.23 0.24 0.27 0.32 0.33 0.39 0.44 0.45 0.47 0.49
0.23 0.25 0.24 0.23 0.28 0.27 0.24 0.29 0.35 0.40 0.32 0.30 0.24 0.19 0.15 0.13 0.11 0.08 0.05 0.04 0.03 0.03 0.03 0.03 0.03 0.03 0.04 0.06 0.11 0.15 0.19 0.21 0.22 0.23 0.24 0.24 0.27 0.29 0.31 0.41 0.45 0.49 0.55 0.56
0.28 0.28 0.28 0.28 0.33 0.30 0.29 0.31 0.28 0.19 0.13 0.09 0.07 0.05 0.06 0.06 0.05 0.03 0.02 0.02 0.02 0.02 0.02 0.02 0.03 0.04 0.05 0.09 0.15 0.20 0.19 0.20 0.23 0.25 0.25 0.27 0.27 0.32 0.37 0.42 0.42 0.42 0.46 0.46
0.29 0.21 0.25 0.32 0.36 0.34 0.25 0.15 0.12 0.08 0.05 0.04 0.05 0.05 0.06 0.06 0.04 0.02 0.02 0.02 0.02 0.02 0.03 0.03 0.05 0.07 0.10 0.12 0.15 0.18 0.20 0.24 0.28 0.29 0.29 0.30 0.31 0.32 0.35 0.42 0.42 0.41 0.41 0.41
0.21 0.15 0.21 0.34 0.40 0.35 0.28 0.18 0.11 0.08 0.06 0.05 0.06 0.06 0.06 0.05 0.04 0.02 0.01 0.01 0.01 0.01 0.02 0.04 0.08 0.12 0.14 0.13 0.14 0.15 0.19 0.27 0.31 0.31 0.31 0.31 0.33 0.33 0.33 0.39 0.42 0.36 0.37 0.34
0.10 0.12 0.18 0.30 0.30 0.29 0.25 0.14 0.09 0.06 0.06 0.07 0.08 0.08 0.07 0.05 0.02 0.01 0.01 0.01 0.01 0.02 0.05 0.09 0.13 0.16 0.16 0.15 0.16 0.17 0.21 0.31 0.37 0.37 0.34 0.33 0.33 0.33 0.34 0.37 0.37 0.30 0.23 0.21